Volver al catálogo

INTELSAT 704

ActivoComunicacionesGEO
NORAD 23461·PAYLOAD· XX

Lanzado Jan 10, 1995 desde Cape Canaveral Space Force Station

Loading…

TLE

ActualizadoSource: Space-Track

Época: Sep 14, 2026, 10:44 UTC

1 23461U 95001A   26257.44763794  .00000031  00000-0  00000-0 0  9991
2 23461  12.0149  34.9293 0013386 167.5320  28.3417  0.99177055115364

Sigue INTELSAT 704 en tiempo real con AllMySat

Download on the App Store